• In Hungary
  • List of Countries
  • For 7 days
  • Water Temperature
  • Satellite Maps
  • Weather Map
  • News
  • Weather Widgets
  • user-avatar
    Login

    Hourly Weather Hlucin

    Today, 24 June, Sunday

    Time Temperature Precipitation Wind Pressure Humidity
    00:00 +10°C° 0.1 mm 2 mps 742 mmHg 92%
    01:00 +10°C° 0 mm 2 mps 741 mmHg 93%
    02:00 +10°C° 0.2 mm 2 mps 741 mmHg 94%
    03:00 +10°C° 0.2 mm 2 mps 741 mmHg 94%
    04:00 +10°C° 0.2 mm 2 mps 741 mmHg 94%
    05:00 +10°C° 0.3 mm 2 mps 741 mmHg 92%
    06:00 +12°C° 0.3 mm 2 mps 741 mmHg 90%
    07:00 +12°C° 0.3 mm 3 mps 741 mmHg 88%
    08:00 +12°C° 0.3 mm 3 mps 741 mmHg 86%
    09:00 +13°C° 0.3 mm 3 mps 741 mmHg 83%
    10:00 +14°C° 0.3 mm 3 mps 741 mmHg 81%
    11:00 +14°C° 0.4 mm 3 mps 741 mmHg 79%
    12:00 +16°C° 0.4 mm 3 mps 741 mmHg 77%
    13:00 +16°C° 0.4 mm 3 mps 740 mmHg 75%
    14:00 +17°C° 0.2 mm 3 mps 740 mmHg 73%
    15:00 +17°C° 0.2 mm 3 mps 740 mmHg 71%
    16:00 +17°C° 0.2 mm 3 mps 740 mmHg 70%
    17:00 +17°C° 0.2 mm 3 mps 740 mmHg 74%
    18:00 +16°C° 0.2 mm 2 mps 740 mmHg 79%
    19:00 +15°C° 0.2 mm 2 mps 740 mmHg 84%
    20:00 +14°C° 0.1 mm 2 mps 740 mmHg 87%
    21:00 +13°C° 0.1 mm 2 mps 740 mmHg 89%
    22:00 +12°C° 0.1 mm 2 mps 741 mmHg 92%
    23:00 +12°C° 0 mm 2 mps 741 mmHg 92%

    Tomorrow, 25 June, Monday

    Time Temperature Precipitation Wind Pressure Humidity
    00:00 +12°C° 0 mm 1 mps 741 mmHg 93%
    01:00 +12°C° 0 mm 1 mps 741 mmHg 93%
    02:00 +12°C° 0.1 mm 1 mps 741 mmHg 94%
    03:00 +12°C° 0.1 mm 1 mps 741 mmHg 94%
    04:00 +12°C° 0.1 mm 1 mps 741 mmHg 94%
    05:00 +12°C° 0 mm 1 mps 741 mmHg 92%
    06:00 +13°C° 0 mm 1 mps 742 mmHg 90%
    07:00 +14°C° 0 mm 1 mps 742 mmHg 88%
    08:00 +15°C° 0.1 mm 1 mps 742 mmHg 84%
    09:00 +15°C° 0.1 mm 2 mps 742 mmHg 81%
    10:00 +16°C° 0.1 mm 2 mps 742 mmHg 77%
    11:00 +17°C° 0.1 mm 2 mps 742 mmHg 73%
    12:00 +18°C° 0.1 mm 2 mps 742 mmHg 68%
    13:00 +19°C° 0.1 mm 2 mps 742 mmHg 64%
    14:00 +20°C° 0.1 mm 2 mps 742 mmHg 62%
    15:00 +20°C° 0.1 mm 2 mps 742 mmHg 61%
    16:00 +21°C° 0.1 mm 2 mps 742 mmHg 59%
    17:00 +20°C° 0.1 mm 2 mps 742 mmHg 64%
    18:00 +20°C° 0.1 mm 1 mps 742 mmHg 70%
    19:00 +19°C° 0.1 mm 1 mps 742 mmHg 75%
    20:00 +18°C° 0 mm 1 mps 742 mmHg 78%
    21:00 +15°C° 0 mm 1 mps 742 mmHg 81%
    22:00 +14°C° 0 mm 1 mps 743 mmHg 84%
    23:00 +14°C° 0 mm 1 mps 742 mmHg 85%

    Day after tomorrow, 26 June, Tuesday

    Time Temperature Precipitation Wind Pressure Humidity
    00:00 +13°C° 0 mm 1 mps 742 mmHg 86%
    01:00 +13°C° 0 mm 1 mps 742 mmHg 87%
    02:00 +13°C° 0 mm 1 mps 742 mmHg 88%
    03:00 +12°C° 0 mm 1 mps 742 mmHg 89%
    04:00 +12°C° 0 mm 1 mps 742 mmHg 89%
    05:00 +14°C° 0 mm 1 mps 742 mmHg 84%
    06:00 +15°C° 0 mm 1 mps 743 mmHg 80%
    07:00 +18°C° 0 mm 1 mps 743 mmHg 75%
    08:00 +18°C° 0.2 mm 2 mps 743 mmHg 71%
    09:00 +20°C° 0.2 mm 3 mps 743 mmHg 67%
    10:00 +21°C° 0.2 mm 3 mps 743 mmHg 62%
    11:00 +21°C° 0.2 mm 3 mps 743 mmHg 59%
    12:00 +22°C° 0.2 mm 3 mps 743 mmHg 56%
    13:00 +22°C° 0.2 mm 3 mps 742 mmHg 54%
    14:00 +22°C° 0.2 mm 4 mps 742 mmHg 56%
    15:00 +22°C° 0.2 mm 4 mps 742 mmHg 59%
    16:00 +21°C° 0.2 mm 4 mps 742 mmHg 62%
    17:00 +20°C° 0.2 mm 4 mps 742 mmHg 69%
    18:00 +19°C° 0.2 mm 3 mps 742 mmHg 75%
    19:00 +18°C° 0.2 mm 2 mps 742 mmHg 81%
    20:00 +17°C° 0.3 mm 2 mps 742 mmHg 85%
    21:00 +16°C° 0.3 mm 2 mps 742 mmHg 89%
    22:00 +15°C° 0.3 mm 1 mps 742 mmHg 93%
    23:00 +14°C° 0.1 mm 1 mps 742 mmHg 93%

    27 June, Wednesday

    Time Temperature Precipitation Wind Pressure Humidity
    00:00 +14°C° 0.1 mm 1 mps 742 mmHg 93%
    01:00 +13°C° 0.1 mm 1 mps 742 mmHg 94%
    02:00 +13°C° 0 mm 1 mps 742 mmHg 94%
    03:00 +13°C° 0 mm 1 mps 742 mmHg 95%
    04:00 +13°C° 0 mm 1 mps 742 mmHg 95%
    05:00 +14°C° 0.1 mm 2 mps 742 mmHg 92%
    06:00 +15°C° 0.1 mm 2 mps 742 mmHg 89%
    07:00 +16°C° 0.1 mm 2 mps 742 mmHg 87%
    08:00 +17°C° 0.5 mm 3 mps 742 mmHg 82%
    09:00 +18°C° 0.5 mm 3 mps 742 mmHg 77%
    10:00 +19°C° 0.5 mm 4 mps 742 mmHg 72%
    11:00 +19°C° 0.5 mm 4 mps 742 mmHg 69%
    12:00 +20°C° 0.5 mm 4 mps 741 mmHg 67%
    13:00 +20°C° 0.5 mm 4 mps 741 mmHg 64%
    14:00 +20°C° 0.7 mm 4 mps 741 mmHg 67%
    15:00 +20°C° 0.7 mm 4 mps 741 mmHg 71%
    16:00 +19°C° 0.7 mm 4 mps 740 mmHg 74%
    17:00 +18°C° 0.3 mm 4 mps 740 mmHg 77%
    18:00 +18°C° 0.3 mm 3 mps 740 mmHg 80%
    19:00 +17°C° 0.3 mm 2 mps 740 mmHg 84%
    20:00 +16°C° 0.4 mm 2 mps 740 mmHg 86%
    21:00 +15°C° 0.4 mm 2 mps 740 mmHg 89%
    22:00 +14°C° 0.4 mm 1 mps 740 mmHg 92%
    23:00 +14°C° 0 mm 1 mps 740 mmHg 92%

    28 June, Thursday

    Time Temperature Precipitation Wind Pressure Humidity
    00:00 +13°C° 0 mm 2 mps 739 mmHg 93%
    01:00 +13°C° 0 mm 2 mps 739 mmHg 94%
    02:00 +13°C° 0.1 mm 2 mps 739 mmHg 95%
    03:00 +13°C° 0.1 mm 2 mps 739 mmHg 96%
    04:00 +13°C° 0.1 mm 2 mps 739 mmHg 96%
    05:00 +13°C° 0.1 mm 3 mps 738 mmHg 95%
    06:00 +13°C° 0.1 mm 3 mps 738 mmHg 94%
    07:00 +14°C° 0.1 mm 3 mps 738 mmHg 93%
    08:00 +14°C° 0.9 mm 3 mps 738 mmHg 93%
    09:00 +15°C° 0.9 mm 4 mps 737 mmHg 93%
    10:00 +15°C° 0.9 mm 4 mps 737 mmHg 93%
    11:00 +15°C° 1.4 mm 4 mps 736 mmHg 93%
    12:00 +15°C° 1.4 mm 4 mps 736 mmHg 93%
    13:00 +15°C° 1.4 mm 4 mps 735 mmHg 93%
    14:00 +17°C° 1.1 mm 3 mps 735 mmHg 92%
    15:00 +17°C° 1.1 mm 3 mps 734 mmHg 92%
    16:00 +17°C° 1.1 mm 3 mps 734 mmHg 91%
    17:00 +17°C° 0.3 mm 3 mps 733 mmHg 91%
    18:00 +17°C° 0.3 mm 3 mps 733 mmHg 91%
    19:00 +16°C° 0.3 mm 3 mps 733 mmHg 91%
    20:00 +15°C° 0.3 mm 4 mps 732 mmHg 92%
    21:00 +15°C° 0.3 mm 4 mps 732 mmHg 92%
    22:00 +15°C° 0.3 mm 4 mps 732 mmHg 93%
    23:00 +14°C° 0.3 mm 4 mps 732 mmHg 93%

    29 June, Friday

    Time Temperature Precipitation Wind Pressure Humidity
    00:00 +14°C° 0.3 mm 3 mps 732 mmHg 94%
    01:00 +14°C° 0.3 mm 3 mps 731 mmHg 94%
    02:00 +14°C° 0.4 mm 3 mps 731 mmHg 94%
    03:00 +14°C° 0.4 mm 3 mps 731 mmHg 94%
    04:00 +14°C° 0.4 mm 2 mps 731 mmHg 94%
    05:00 +15°C° 0.9 mm 2 mps 731 mmHg 92%
    06:00 +15°C° 0.9 mm 2 mps 731 mmHg 90%
    07:00 +16°C° 0.9 mm 2 mps 732 mmHg 88%
    08:00 +17°C° 0.6 mm 2 mps 732 mmHg 86%
    09:00 +18°C° 0.6 mm 1 mps 732 mmHg 83%
    10:00 +19°C° 0.6 mm 1 mps 732 mmHg 81%
    11:00 +20°C° 0.5 mm 1 mps 732 mmHg 79%
    12:00 +20°C° 0.5 mm 1 mps 732 mmHg 77%
    13:00 +21°C° 0.5 mm 1 mps 733 mmHg 75%
    14:00 +21°C° 0.3 mm 1 mps 733 mmHg 73%
    15:00 +22°C° 0.3 mm 1 mps 733 mmHg 70%
    16:00 +22°C° 0.3 mm 1 mps 733 mmHg 68%
    17:00 +20°C° 0.5 mm 2 mps 733 mmHg 74%
    18:00 +20°C° 0.5 mm 2 mps 733 mmHg 80%
    19:00 +19°C° 0.5 mm 2 mps 733 mmHg 85%
    20:00 +18°C° 0.2 mm 2 mps 734 mmHg 89%
    21:00 +17°C° 0.2 mm 2 mps 734 mmHg 92%
    22:00 +16°C° 0.2 mm 2 mps 734 mmHg 95%
    23:00 +16°C° 0.1 mm 2 mps 734 mmHg 95%
    Show more